This is the latest recevied weather packets stored in our database for station/object YO8PIC-4. If no packets are shown the sender has not sent any weather packets the latest 10 day(s).
| Time | Temp. | Humidity | Pressure | Rain* | Wind** | Luminosity | Snow |
|---|---|---|---|---|---|---|---|
| 1777847609 | 22.22° C | 48% | 1014.4 hPa | - | - | - | - |
| 1777847009 | 22.78° C | 57% | 1014.5 hPa | - | - | - | - |
| 1777846409 | 22.78° C | 54% | 1014.4 hPa | - | - | - | - |
| 1777845809 | 22.78° C | 53% | 1014.5 hPa | - | - | - | - |
| 1777845208 | 22.78° C | 53% | 1014.5 hPa | - | - | - | - |
| 1777844608 | 22.78° C | 53% | 1014.7 hPa | - | - | - | - |
| 1777844008 | 22.78° C | 53% | 1014.8 hPa | - | - | - | - |
| 1777843408 | 22.78° C | 53% | 1014.8 hPa | - | - | - | - |
| 1777842808 | 22.78° C | 53% | 1014.6 hPa | - | - | - | - |
| 1777842208 | 22.78° C | 52% | 1014.7 hPa | - | - | - | - |
| 1777841608 | 22.78° C | 53% | 1014.7 hPa | - | - | - | - |
| 1777841008 | 22.78° C | 54% | 1014.8 hPa | - | - | - | - |
| 1777840407 | 22.78° C | 53% | 1015 hPa | - | - | - | - |
| 1777839807 | 22.78° C | 53% | 1015.1 hPa | - | - | - | - |
| 1777839207 | 22.78° C | 54% | 1015.2 hPa | - | - | - | - |
| 1777838607 | 22.78° C | 53% | 1015.2 hPa | - | - | - | - |
| 1777838007 | 22.78° C | 53% | 1015.3 hPa | - | - | - | - |
| 1777837407 | 22.78° C | 53% | 1015.2 hPa | - | - | - | - |
| 1777836807 | 22.78° C | 55% | 1015.3 hPa | - | - | - | - |
| 1777836206 | 22.78° C | 54% | 1015.4 hPa | - | - | - | - |
| 1777835606 | 22.78° C | 49% | 1015.4 hPa | - | - | - | - |
| 1777835006 | 22.78° C | 54% | 1015.5 hPa | - | - | - | - |
| 1777834406 | 22.78° C | 54% | 1015.5 hPa | - | - | - | - |
| 1777833806 | 22.78° C | 54% | 1015.4 hPa | - | - | - | - |
| 1777833206 | 22.78° C | 54% | 1015.4 hPa | - | - | - | - |
* Rain since midnight (hover to see other rain measurements)
** Current wind speed in m/s (hover to see current wind gust speed)